map of UNN home
UNN - Airport
Location
City:  Ranong, Ranong, Thailand
ICAO:VTSR
IATA:UNN

Details
Type:Airport (Aerodrome, Airfield)
Latitude:946'39"N (9.777622)
Longitude:9835'08"E (98.585483)
Datum:WGS 1984
Elevation:57 ft (17 m)
Variation:0.55W (WMM2015v2 magnetic declination)
-0.01 annual change
Runways:1
Longest:6562 × 148 ft (2000 × 45 m), paved

Time
Time Zone:UTC+7
Local Time:

Weather
METAR:VTSR 041200Z 36004KT CAVOK 29/25 Q1012 NOSIG
TAF:VTSR 041100Z 0412/0512 10006KT 9999 BKN035
BECMG 0414/0416 VRB02KT 8000
BECMG 0504/0506 10008KT 9999 FEW020

Related Locations
Nearby:
Farthest:CHM: 12247 mi / 19710 km
Chimbote [Teniente FAP Jaime A. de Montrevil Morales], ANC, PE

Find:

   beyond  
but within

Other Information
Maps:
NOTAMs:
Links:
Sources:

  
  • flag of Thailand
  

Sectional Chart

Flight Planning
at skyvector.com

Satellite Image

Google Maps Satellite view

 

Copyright © 2004-2019 Karl L. Swartz. All rights reserved.
The Great Circle Mapper name and logo are trademarks of the Great Circle Mapper.
All other trademarks mentioned herein belong to their respective owners.
Please see credits for attibutions and further copyright information.

  Follow gcmap on Facebook Follow gcmap on Twitter GCmap on LinkedIn

hCard Microformat

Geo Microformat